This is the latest recevied weather packets stored in our database for station/object KE8RXN. If no packets are shown the sender has not sent any weather packets the latest 10 day(s).
| Time | Temp. | Humidity | Pressure | Rain* | Wind** | Luminosity | Snow |
|---|---|---|---|---|---|---|---|
| 1778075187 | 8.89° C | 59% | 1016.4 hPa | 0 mm | - | 464 W/m² | - |
| 1778074882 | 8.89° C | 61% | 1016.5 hPa | 0 mm | - | 443 W/m² | - |
| 1778074580 | 8.33° C | 64% | 1016.3 hPa | 0 mm | - | 403 W/m² | - |
| 1778074277 | 8.33° C | 63% | 1016.4 hPa | 0 mm | - | 390 W/m² | - |
| 1778073974 | 8.33° C | 65% | 1016.3 hPa | 0 mm | - | 365 W/m² | - |
| 1778073671 | 7.78° C | 66% | 1016.3 hPa | 0 mm | - | 359 W/m² | - |
| 1778073368 | 7.78° C | 66% | 1016.1 hPa | 0 mm | - | 323 W/m² | - |
| 1778073064 | 7.78° C | 67% | 1016.4 hPa | 0 mm | - | 301 W/m² | - |
| 1778072762 | 7.22° C | 67% | 1016.3 hPa | 0 mm | - | 275 W/m² | - |
| 1778072459 | 7.22° C | 68% | 1016.3 hPa | 0 mm | - | 247 W/m² | - |
| 1778072157 | 7.22° C | 68% | 1016.5 hPa | 0 mm | - | 251 W/m² | - |
| 1778071854 | 6.67° C | 71% | 1016.4 hPa | 0 mm | - | 239 W/m² | - |
| 1778071552 | 6.67° C | 69% | 1016.3 hPa | 0 mm | - | 229 W/m² | - |
| 1778071250 | 6.67° C | 71% | 1016.3 hPa | 0 mm | - | 212 W/m² | - |
| 1778070947 | 6.11° C | 71% | 1016.4 hPa | 0 mm | - | 186 W/m² | - |
| 1778070646 | 6.11° C | 72% | 1016.3 hPa | 0 mm | - | 183 W/m² | - |
| 1778070342 | 5.56° C | 74% | 1016.3 hPa | 0 mm | - | 170 W/m² | - |
| 1778070040 | 5.56° C | 73% | 1016.2 hPa | 0 mm | - | 150 W/m² | - |
| 1778069737 | 5.56° C | 75% | 1016.1 hPa | 0 mm | - | 138 W/m² | - |
| 1778069433 | 5.56° C | 74% | 1016 hPa | 0 mm | - | 119 W/m² | - |
| 1778069131 | 5.56° C | 74% | 1016.3 hPa | 0 mm | - | 55 W/m² | - |
| 1778068829 | 5.56° C | 74% | 1015.8 hPa | 0 mm | - | 58 W/m² | - |
| 1778068526 | 5° C | 74% | 1015.8 hPa | 0 mm | - | 53 W/m² | - |
| 1778068225 | 5° C | 75% | 1015.7 hPa | 0 mm | - | 49 W/m² | - |
| 1778067922 | 5° C | 75% | 1015.5 hPa | 0 mm | - | 45 W/m² | - |
* Rain latest hour (hover to see other rain measurements)
** Current wind speed in m/s (hover to see current wind gust speed)